Location: Unspecified
(54.1780°N, 0.0000°E)
Time: 05:49:30
(UTC+00:00)

Tiros 1 - Pass Details

Date: 27 June 2019
Orbit: 630 x 664 km, 48.4° (Epoch: 13 October)

Event Time Altitude Azimuth Distance (km) Brightness Sun altitude
Rises 03:14:19 0° 273° (W) 2,937 10.1 -2.3°
Reaches altitude 10° 03:17:24 10° 252° (WSW) 2,019 9.2 -2.0°
Maximum altitude 03:20:13 16° 214° (SW) 1,644 8.6 -1.7°
Drops below altitude 10° 03:23:02 10° 176° (S) 2,005 9.3 -1.4°
Sets 03:26:06 0° 155° (SSE) 2,907 10.3 -1.1°
